MTG-S1

Last updated on Sun Jun 21 2026 00:02:47 GMT+0000 (Coordinated Universal Time)

1 64723U 25143A 26171.39155049 -.00000005 00000+0 00000+0 0 9994 2 64723 0.6001 339.7327 0000829 294.1194 133.2187 1.00399694 3452
UTC large
Height (km)
Speed (km/s)
/
Latitude / Longitude
Inclination (degrees)
Orbital Period (minutes)
Azimuth
Elevation
Range (km)
Doppler Factor

Next 0 passes for location: London (51.5072 / 0.1276)

No passes found over London.
MTG-S1